Regional Weather Roundup
Issued by NWS

Home | Current Version | Previous Version | Graphics & Text | Print | Product List | Glossary On
Versions: 1 2 3 4 5 6 7 8 9 10 11 12 13 14 15 16 17 18 19 20 21 22 23 24 25 26 27 28 29 30 31 32 33 34 35 36 37 38 39 40 41 42 43 44 45 46 47 48 49 50
323
ASUS43 KDMX 241301
RWRIA

WEATHER ROUNDUP FOR IOWA
NATIONAL WEATHER SERVICE DES MOINES IA
800 AM CDT TUE APR 24 2018

NOTE: "FAIR" INDICATES FEW OR NO CLOUDS BELOW 12,000 FEET WITH NO
SIGNIFICANT WEATHER AND/OR OBSTRUCTIONS TO VISIBILITY.

* - THESE STATIONS ARE NOT NWS STATIONS...THUS NOT UNDER NWS
QUALITY CONTROL.  THEY ALSO DO NOT REPORT WEATHER SUCH
AS PRECIPITATION OR FOG.

IAZ001>003-012>014-020>022-031>034-043>046-241400-
   NORTHWEST IOWA

CITY           SKY/WX    TMP DP  RH WIND       PRES   REMARKS
CARROLL *      SUNNY     46  43  87 NW3       30.13R
CHEROKEE *     PTSUNNY   42  41  95 CALM      30.15R
DENISON *      SUNNY     45  43  93 CALM      30.15R
LE MARS *      CLOUDY    45  39  81 CALM      30.15R
ORANGE CITY *  PTSUNNY   52  43  71 CALM      30.15R
SHELDON *      CLOUDY    45  43  93 NE3       30.14R
SIOUX CITY     MOSUNNY   45  40  82 CALM      30.14R
SPENCER        SUNNY     45  40  82 CALM      30.15R
STORM LAKE *   SUNNY     52  41  66 CALM      30.14R
$$

IAZ055>058-069>071-079>083-090>094-241400-
   SOUTHWEST IOWA

CITY           SKY/WX    TMP DP  RH WIND       PRES   REMARKS
ATLANTIC *     SUNNY     46  41  81 NE5       30.13R
AUDUBON *      SUNNY     45  41  87 CALM      30.14R
CLARINDA *     SUNNY     46  37  71 N3        30.15R
COUNCIL BLFS * SUNNY     48  45  87 E5        30.13R
CRESTON *      SUNNY     52  37  58 NE7       30.13R
HARLAN  *      SUNNY     46  45  93 CALM      30.17R
LAMONI         SUNNY     50  33  52 NE6       30.11R
RED OAK *      SUNNY     48  41  76 MISG      30.14R
SHENANDOAH *   SUNNY     43  36  75 CALM      30.14R
$$

IAZ047>049-059>061-072>074-084-241400-
   CENTRAL IOWA

CITY           SKY/WX    TMP DP  RH WIND       PRES   REMARKS
AMES           SUNNY     50  41  71 N3        30.12S
ANKENY *       SUNNY     48  39  71 CALM      30.13S
BOONE *        SUNNY     52  43  71 NE3       30.11S
CHARITON *     SUNNY     48  36  61 NE5       30.10F
DES MOINES     CLOUDY    51  39  63 CALM      30.12R
GRINNELL*      CLOUDY    52  32  46 NE8       30.12S
KNOXVILLE *    MOSUNNY   50  34  53 CALM      30.10S
MARSHALLTOWN   SUNNY     47  39  74 NW3       30.11S
NEWTON *       CLOUDY    52  34  50 NE8       30.11S
PELLA *        CLOUDY    49  32  53 CALM      30.12F
$$

IAZ004>006-015-016-023>025-035-036-241400-
   NORTH CENTRAL IOWA

CITY           SKY/WX    TMP DP  RH WIND       PRES   REMARKS
ALGONA *       SUNNY     45  41  87 N6        30.14R
CLARION *      SUNNY     48  43  81 N5        30.13R
ESTHERVILLE    SUNNY     42  38  85 NW6       30.14R
FORT DODGE *   SUNNY     46  40  79 CALM      30.13R
MASON CITY     CLOUDY    47  42  83 N3        30.13F
FOREST CITY *  FAIR      50  43  76 CALM      30.13S
WEBSTER CITY * SUNNY     50  43  76 CALM      30.10S
IOWA FALLS *   FAIR      50  41  72 CALM      30.12F
$$

IAZ007>011-017>019-026>030-037>042-050>054-066-241400-
   NORTHEAST IOWA

CITY           SKY/WX    TMP DP  RH WIND       PRES   REMARKS
CEDAR RAPIDS     N/A     47  35  63 N7        30.10S
CHARLES CITY * PTSUNNY   50  43  76 N3        30.12F
CLINTON *      FAIR      49  35  58 N14       30.10S
DECORAH *      FAIR      48  36  61 NW3       30.11S
DUBUQUE        FAIR      49  33  54 N6        30.11S
MONTICELLO *   FAIR      45  37  76 CALM      30.11S
OELWEIN *      FAIR      50  39  66 CALM      30.12S
WATERLOO       FAIR      47  40  76 NW3       30.12S
$$

IAZ064-065-067-068-078-241400-
   EAST CENTRAL IOWA

CITY           SKY/WX    TMP DP  RH WIND       PRES   REMARKS
DAVENPORT      FAIR      50  32  50 N9        30.12R
IOWA CITY      FAIR      51  34  52 CALM      30.12S
MT. PLEASANT * SUNNY     50  36  57 N5        30.10S
MUSCATINE *    FAIR      52  34  50 N6        30.11S
QUAD CITIES    FAIR      56  33  42 CALM      30.08S
$$

IAZ062-063-075>077-085>089-095>099-241400-
   SOUTHEAST IOWA

CITY           SKY/WX    TMP DP  RH WIND       PRES   REMARKS
BURLINGTON     SUNNY     54  42  64 N6        30.09R
FAIRFIELD *    SUNNY     50  32  50 N8        30.10S
FORT MADISON * SUNNY     52  45  76 NE5       30.10S
KEOKUK *       SUNNY     52  45  76 NE6       30.09R
OSKALOOSA *    FAIR      48  31  51 N6        30.12R
CENTERVILLE *    N/A     50  32  50 CALM      30.12S
OTTUMWA        SUNNY     50  32  50 N5        30.11R
WASHINGTON *   SUNNY     50  34  53 N8        30.11S
$$

ABBREVIATIONS USED IN REMARKS
   TC - TEMPERATURES IN CELSIUS
  WCI - WIND CHILL INDEX
   HX - HEAT INDEX
  VSB - VISIBILITY
$$





USA.gov is the U.S. government's official web portal to all federal, state and local government web resources and services.